Date,TemperatureHighF,TemperatureAvgF,TemperatureLowF,DewpointHighF,DewpointAvgF,DewpointLowF,HumidityHigh,HumidityAvg,HumidityLow,PressureMaxIn,PressureMinIn,WindSpeedMaxMPH,WindSpeedAvgMPH,GustSpeedMaxMPH,PrecipitationSumIn
2013-1-1,32,20,2,28,14,0,94,77,58,29.76,29.59,12,5,12,0.00
2013-1-2,28,21,8,20,16,7,96,81,69,29.89,29.72,17,5,17,0.00
2013-1-3,30,23,16,28,21,13,99,91,80,29.89,29.69,13,3,13,0.00
2013-1-4,32,31,26,27,26,20,86,82,74,29.78,29.62,33,15,33,0.02
2013-1-5,30,30,30,29,28,25,94,91,80,29.95,29.77,18,9,18,0.00
2013-1-6,30,30,30,29,29,29,94,94,94,29.95,29.95,9,9,9,0.00
2013-1-7,30,30,30,29,29,29,94,94,94,29.95,29.95,9,9,9,0.00
2013-1-8,30,30,30,29,29,29,94,94,94,29.95,29.95,9,9,9,0.00
2013-1-9,30,30,30,29,29,29,94,94,94,29.95,29.95,9,9,9,0.00
2013-1-10,30,30,30,29,29,29,94,94,94,29.95,29.95,9,9,9,0.00
2013-1-11,30,30,30,29,29,29,94,94,94,29.95,29.95,9,9,9,0.00
2013-1-12,30,30,30,29,29,29,94,94,94,29.95,29.95,9,9,9,0.00
2013-1-13,30,30,30,29,29,29,94,94,94,29.95,29.95,9,9,9,0.00
2013-1-14,30,30,30,29,29,29,94,94,94,29.95,29.95,9,9,9,0.00
2013-1-15,30,30,30,29,29,29,94,94,94,29.95,29.95,9,9,9,0.00
2013-1-16,30,30,30,29,29,29,94,94,94,29.95,29.95,9,9,9,0.00
2013-1-17,30,30,30,29,29,29,94,94,94,29.95,29.95,9,9,9,0.00
2013-1-18,30,30,30,29,29,29,94,94,94,29.95,29.95,9,9,9,0.00
2013-1-19,30,30,30,29,29,29,94,94,94,29.95,29.95,9,9,9,0.00
2013-1-20,30,25,17,29,18,6,94,75,40,30.27,29.93,32,11,32,0.51
2013-1-21,22,17,10,17,10,-3,97,74,56,30.25,30.05,15,3,15,0.00
2013-1-22,15,8,4,-1,-5,-9,64,55,36,30.35,30.08,20,9,20,0.00
2013-1-23,15,8,1,9,1,-6,93,75,40,30.39,30.27,11,3,12,0.00
2013-1-24,19,6,-8,12,2,-10,96,83,55,30.69,30.26,14,2,14,0.00
2013-1-25,22,8,-8,10,3,-10,95,82,51,30.66,30.24,7,1,7,0.00
2013-1-26,31,13,0,15,7,-2,95,79,41,30.56,30.26,6,1,6,0.00
2013-1-27,39,21,7,21,14,6,98,76,36,30.73,30.51,4,1,4,0.05
2013-1-28,44,35,24,43,34,17,99,95,77,30.50,30.04,17,4,17,0.32
2013-1-29,53,46,37,52,46,36,99,99,99,30.22,29.94,4,2,4,0.40
2013-1-30,65,56,49,58,53,49,99,89,68,29.92,29.27,9,4,9,0.37
2013-1-31,50,26,21,49,17,10,99,69,49,29.91,29.29,34,16,35,0.37
2013-2-1,25,19,16,18,12,6,97,76,50,30.36,29.91,24,10,24,0.00
2013-2-2,35,16,4,20,12,3,97,85,49,30.36,30.14,3,0,3,0.01
2013-2-3,29,15,0,18,10,-1,98,83,36,30.14,29.97,2,0,2,0.00
2013-2-4,22,17,13,15,11,6,96,79,53,30.15,30.04,2,0,2,0.00
2013-2-5,39,22,13,24,15,10,99,79,33,30.12,30.02,8,1,8,0.05
2013-2-6,30,23,8,26,16,6,99,76,37,30.54,30.05,18,6,18,0.00
2013-2-7,32,24,6,23,17,6,98,76,54,30.54,30.23,15,5,15,0.00
2013-2-8,37,28,16,36,26,16,99,92,80,30.31,29.94,8,2,8,0.15
2013-2-9,23,15,3,20,14,3,99,95,83,30.58,30.31,0,0,0,0.00
2013-2-10,48,23,-6,32,14,-8,96,72,36,30.57,30.11,10,2,10,0.38
2013-2-11,62,39,31,44,33,22,99,80,45,30.12,29.76,31,8,31,0.18
2013-2-12,34,31,30,31,29,25,99,91,80,30.16,29.94,22,8,22,0.07
2013-2-13,44,30,17,29,24,17,99,78,41,30.10,29.92,8,2,8,0.00
2013-2-14,52,33,17,36,28,16,99,85,29,30.09,29.95,10,2,10,0.12
2013-2-15,37,31,19,36,25,14,99,77,59,30.26,29.96,23,8,23,0.00
2013-2-16,41,24,13,21,14,2,96,70,20,30.25,30.09,8,3,9,0.00
2013-2-17,19,14,11,19,10,2,99,81,55,30.38,30.08,17,6,17,0.00
2013-2-18,43,23,-1,22,8,-2,95,59,20,30.44,30.05,8,2,8,0.00
2013-2-19,42,33,22,40,28,19,99,82,53,30.06,29.76,24,2,24,0.31
2013-2-20,27,20,18,22,14,9,99,77,54,30.27,29.95,26,8,26,0.00
2013-2-21,24,18,14,17,14,10,95,83,67,30.58,30.24,17,6,17,0.00
2013-2-22,18,18,18,15,15,15,87,87,87,30.56,30.56,2,2,2,0.00
2013-6-24,86,77,68,70,68,65,99,76,53,30.27,30.17,10,3,10,0.00
2013-6-25,80,73,67,72,68,65,99,86,66,30.17,30.03,11,4,11,0.00
2013-6-26,84,74,68,71,68,64,99,84,53,30.06,30.01,12,4,12,0.00
2013-6-27,82,71,63,75,69,62,99,92,72,30.03,29.86,4,1,4,0.00
2013-6-28,77,66,62,72,66,62,99,97,76,29.86,29.71,4,1,4,0.00
2013-6-29,81,67,61,68,64,61,99,90,61,29.92,29.71,5,2,5,0.00
2013-6-30,82,71,56,68,64,56,99,80,59,30.13,29.92,11,2,11,0.00
2013-7-1,70,66,63,65,64,63,99,94,80,30.22,30.13,11,4,11,0.00
2013-7-13,87,72,58,72,66,58,99,82,56,30.46,30.37,7,2,7,0.00
2013-7-14,94,78,65,77,70,65,99,80,45,30.51,30.44,5,1,5,0.00
2013-7-15,93,80,69,77,72,65,99,79,48,30.52,30.45,6,1,6,0.00
2013-7-16,96,81,67,79,70,62,99,74,33,30.50,30.42,4,1,4,0.00
2013-7-17,92,82,71,79,75,70,99,81,51,30.45,30.32,11,3,11,0.00
2013-7-18,92,82,72,80,75,72,99,82,57,30.33,30.18,8,3,8,0.00
2013-7-19,90,79,67,78,72,66,99,83,55,30.18,29.96,19,5,19,0.01
2013-7-20,86,72,65,74,69,64,99,91,50,30.12,29.94,11,2,11,0.00
2013-7-21,84,72,61,69,64,57,99,77,44,30.22,30.11,10,2,10,0.00
2013-7-22,84,71,58,72,64,58,99,81,53,30.22,30.02,9,2,9,0.00